EW1895 Weather Reports


time (UTC)temp
C
wind
direction
speed
KPH
gust
KPH
rain 1hr
cm
rain 24hr
cm
rain mn
cm
humidity
%
barometer
mb
20260507180032 13 355 0.0 0.0 0.00 0.00 0.00 69 1011.4
20260507174530 13 345 0.0 4.8 0.00 0.00 0.00 77 1011.6
20260507173040 13 31 0.0 11.3 0.00 0.00 0.00 81 1011.7
20260507171529 13 81 0.0 0.0 0.00 0.00 0.00 83 1011.8
20260507170028 12 80 0.0 4.8 0.00 0.00 0.00 81 1012.0
20260507164528 13 155 0.0 0.0 0.00 0.00 0.00 87 1012.1
20260507163027 12 137 0.0 1.6 0.00 0.00 0.00 87 1012.2
20260507161527 12 9 0.0 0.0 0.00 0.00 0.00 89 1012.3
20260507160027 12 48 0.0 0.0 0.00 0.00 0.00 90 1012.6
20260507154529 12 98 0.0 0.0 0.00 0.00 0.00 88 1012.7
20260507153026 12 98 0.0 0.0 0.00 0.00 0.00 88 1012.8
20260507151528 12 309 0.0 3.2 0.00 0.00 0.00 89 1012.6
20260507150024 12 328 0.0 1.6 0.00 0.00 0.00 89 1012.5
20260507144524 12 335 0.0 4.8 0.00 0.00 0.00 87 1012.8
20260507143022 13 340 0.0 6.4 0.00 0.00 0.00 85 1012.5
20260507141523 13 343 0.0 3.2 0.00 0.00 0.00 87 1012.7
20260507140022 13 319 0.0 4.8 0.00 0.00 0.00 87 1012.9
20260507134522 13 319 0.0 4.8 0.00 0.00 0.00 87 1012.8
20260507133021 13 300 0.0 3.2 0.00 0.00 0.00 87 1012.7
20260507131521 13 355 0.0 3.2 0.00 0.00 0.00 87 1012.4
20260507130019 13 137 0.0 4.8 0.00 0.00 0.00 86 1012.3
20260507124522 13 232 0.0 6.4 0.00 0.00 0.00 86 1012.6
20260507123017 13 138 0.0 8.0 0.00 0.00 0.00 87 1012.2
20260507121516 12 204 0.0 1.6 0.00 0.00 0.00 88 1012.3
20260507120015 12 341 0.0 3.2 0.00 0.00 0.00 88 1012.2
20260507114515 12 103 0.0 3.2 0.00 0.00 0.00 88 1012.3
20260507113014 12 296 0.0 3.2 0.00 0.00 0.00 87 1012.2
20260507111517 12 278 0.0 6.4 0.00 0.00 0.00 88 1011.7
20260507110011 12 49 0.0 0.0 0.00 0.00 0.00 87 1011.8
20260507104521 12 345 0.0 0.0 0.00 0.00 0.00 87 1011.7
20260507103008 12 22 0.0 0.0 0.00 0.00 0.00 86 1011.7
20260507101507 12 350 0.0 8.0 0.00 0.00 0.00 86 1011.1
20260507100007 12 340 0.0 8.0 0.00 0.00 0.00 86 1011.3
20260507094505 13 329 0.0 4.8 0.00 0.00 0.00 87 1011.7
20260507093005 13 335 1.6 9.7 0.00 0.00 0.00 87 1011.7
20260507091502 13 329 0.0 4.8 0.00 0.00 0.00 89 1011.6
20260507090100 13 319 0.0 4.8 0.00 0.00 0.00 89 1011.3
20260507084557 13 319 0.0 6.4 0.00 0.00 0.00 89 1011.4
20260507083055 13 34 0.0 3.2 0.00 0.00 0.00 89 1011.3
20260507081557 13 339 0.0 8.0 0.00 0.00 0.00 89 1011.1
20260507080049 14 346 0.0 9.7 0.00 0.00 0.00 90 1011.1
20260507074546 15 5 0.0 8.0 0.00 0.00 0.00 90 1010.4
20260507073041 16 88 0.0 6.4 0.00 0.00 0.00 90 1010.4
20260507071538 17 262 1.6 6.4 0.00 0.00 0.00 91 1010.2
20260507070035 17 167 0.0 0.0 0.00 0.00 0.00 93 1010.1
20260507064532 18 167 0.0 0.0 0.00 0.00 0.00 92 1009.8
20260507063030 18 167 0.0 0.0 0.00 0.00 0.00 91 1009.3
20260507061530 18 167 0.0 0.0 0.00 0.00 0.00 90 1009.3
20260507060043 18 167 0.0 0.0 0.00 0.00 0.00 90 1008.9
20260507054538 18 167 0.0 0.0 0.00 0.00 0.00 89 1009.0
20260507053026 18 167 0.0 0.0 0.00 0.00 0.00 89 1008.9
20260507051528 18 167 0.0 0.0 0.00 0.00 0.00 89 1009.3
20260507050026 18 159 0.0 0.0 0.00 0.00 0.00 90 1009.6
20260507044544 18 159 0.0 0.0 0.00 0.00 0.00 90 1009.7
20260507043025 18 200 0.0 0.0 0.00 0.00 0.00 90 1010.1
20260507041524 18 200 0.0 0.0 0.00 0.00 0.00 90 1010.0
20260507040031 18 200 0.0 0.0 0.00 0.00 0.00 90 1009.8
20260507034523 18 200 0.0 0.0 0.00 0.00 0.00 90 1009.9
20260507033022 18 200 0.0 0.0 0.00 0.00 0.00 90 1010.2
20260507031521 18 200 0.0 0.0 0.00 0.00 0.00 90 1009.9
20260507030019 18 200 0.0 0.0 0.00 0.00 0.00 89 1009.9
20260507024519 18 200 0.0 0.0 0.00 0.00 0.00 89 1009.4
20260507023018 18 200 0.0 0.0 0.00 0.00 0.00 89 1009.7
20260507021520 18 200 0.0 0.0 0.00 0.00 0.00 88 1009.8
20260507020014 18 200 0.0 0.0 0.00 0.00 0.00 87 1010.0
20260507014514 18 200 0.0 0.0 0.00 0.00 0.00 87 1010.0
20260507013014 18 200 0.0 0.0 0.00 0.00 0.00 87 1010.1
20260507011512 18 200 0.0 0.0 0.00 0.00 0.00 87 1010.1
20260507010011 18 200 0.0 0.0 0.00 0.00 0.00 86 1009.9
20260507004509 18 200 0.0 0.0 0.00 0.00 0.00 86 1009.5
20260507003006 19 200 0.0 0.0 0.00 0.00 0.00 85 1009.9
20260507001512 19 139 0.0 1.6 0.00 0.00 0.00 83 1010.0
20260507000011 19 71 0.0 0.0 0.00 0.00 0.00 82 1009.8
20260506234504 20 80 0.0 0.0 0.00 0.00 0.00 82 1009.7
20260506233104 20 284 0.0 6.4 0.00 0.00 0.00 81 1009.5
20260506231559 20 261 0.0 1.6 0.00 0.00 0.00 80 1009.4
20260506230056 20 212 0.0 1.6 0.00 0.00 0.00 80 1009.2
20260506224603 21 248 0.0 3.2 0.00 0.00 0.00 79 1009.4
20260506223053 21 221 0.0 12.9 0.00 0.00 0.00 78 1009.5
20260506221554 21 242 0.0 8.0 0.00 0.00 0.00 78 1009.6
20260506220051 21 235 0.0 3.2 0.00 0.00 0.00 78 1009.5
20260506214606 21 290 0.0 3.2 0.00 0.00 0.00 77 1009.2
20260506213049 21 176 0.0 8.0 0.00 0.00 0.00 79 1009.7
20260506211649 21 19 0.0 4.8 0.00 0.00 0.00 77 1009.8
20260506210052 21 209 0.0 9.7 0.00 0.00 0.00 77 1009.6
20260506204556 21 209 0.0 8.0 0.00 0.00 0.00 77 1009.5
20260506203049 21 126 0.0 0.0 0.00 0.00 0.00 82 1009.5
20260506201542 20 118 0.0 3.2 0.00 0.00 0.00 83 1009.5
20260506200040 20 134 0.0 3.2 0.00 0.00 0.00 83 1009.4
20260506194553 20 130 0.0 1.6 0.00 0.00 0.00 83 1009.7
20260506193035 19 159 0.0 0.0 0.00 0.00 0.00 83 1009.6
20260506191535 19 175 0.0 3.2 0.00 0.00 0.00 85 1009.8
20260506190029 18 175 0.0 3.2 0.00 0.00 0.00 87 1010.2
20260506184530 18 180 0.0 3.2 0.00 0.00 0.00 86 1010.5
20260506183022 18 229 0.0 6.4 0.00 0.00 0.00 88 1010.5